Tracking 29489 objects as of 9-Sep-2024
HD Live streaming from Space Station
objects crossing your sky now

NOAA 17 DEB

Track NOAA 17 DEB now!
10-day predictions


NORAD ID: 48184
Int'l Code: 2002-032AA
Perigee: 763.3 km
Apogee: 790.5 km
Inclination: 98.8 °
Period: 100.2 minutes
Semi major axis: 7147 km
RCS: Unknown
Launch date: June 24, 2002
Source: United States (US)
Launch site: AIR FORCE WESTERN TEST RANGE (AFWTR)

Note: This is SATELLITE DEBRIS
Your satellite tracking list
Your tracking list is empty




NASA's NSSDC Master Catalog

Two Line Element Set (TLE):
1 48184U 02032Z   24252.85019349  .00026923  00000-0  91161-2 0  9998
2 48184  98.7931 216.9183 0019012  43.7138 316.5549 14.36602721179375
Source of the keplerian elements: AFSPC